Location: Kitt Peak
(31.9639°N, 111.5992°W)
Time: 01:27:12
(UTC-07:00)

PCSat - Visible Passes

Search period start: 16 September 2024 00:00
Search period end: 26 September 2024 00:00
Orbit: 781 x 792 km, 67.0° (Epoch: 15 September)

Date Brightness Start Highest point End Pass type
(mag) Time Alt. Az. Time Alt. Az. Time Alt. Az.
18 Sep 12.8 18:54:40 10° W 18:56:36 12° WSW 18:58:32 10° SW visible
20 Sep 13.0 05:34:17 10° ESE 05:35:24 11° ESE 05:36:30 10° E visible
23 Sep 11.4 05:37:54 10° S 05:42:44 35° ESE 05:47:36 10° NE visible
24 Sep 12.0 05:06:52 10° SSE 05:11:04 23° ESE 05:15:17 10° NE visible
25 Sep 12.3 04:36:19 10° SE 04:39:25 16° ESE 04:42:33 10° ENE visible
